Total_Precipitation_Accumulation
0.01 0.01 0.02 0.03 0.03 0.05 0.08 0.11 0.13 0.16 0.18 0.21 0.26 0.36 0.53 0.65 0.75 0.79 0.83 0.89 0.93 1.21 1.46 1.79 2.11 2.43 2.93 2.96 2.87 2.98 3.19 3.34 3.44 3.73 3.83 4.05 4.36 4.51 4.63 4.69 4.60 4.55 4.44 4.49
0.03 0.02 0.02 0.02 0.03 0.05 0.09 0.15 0.19 0.19 0.17 0.23 0.37 0.48 0.62 0.74 0.76 0.73 0.83 1.02 1.14 1.46 1.79 1.96 2.14 2.51 2.92 3.11 3.18 3.24 3.48 3.78 4.02 4.26 4.68 4.97 5.21 5.40 5.57 5.60 5.18 5.00 4.89 4.76
0.02 0.02 0.01 0.02 0.04 0.05 0.08 0.12 0.18 0.20 0.17 0.23 0.40 0.63 0.78 0.86 0.91 1.03 1.25 1.45 1.56 1.66 1.97 2.05 2.15 2.52 2.82 3.03 3.20 3.35 3.57 4.02 4.59 4.97 5.40 5.79 5.94 5.96 5.79 5.52 5.39 5.24 5.12 4.99
0.01 0.01 0.01 0.03 0.04 0.05 0.07 0.10 0.16 0.15 0.15 0.24 0.37 0.68 1.01 1.11 1.17 1.40 1.61 1.57 1.64 1.79 2.00 2.12 2.28 2.54 2.83 3.05 3.20 3.51 4.00 4.64 5.21 5.69 6.21 6.67 6.77 6.59 6.28 5.85 5.43 5.16 4.89 4.58
0.02 0.02 0.03 0.04 0.06 0.07 0.07 0.06 0.13 0.13 0.09 0.19 0.31 0.55 1.18 1.37 1.42 1.66 1.92 1.71 1.63 1.63 1.69 1.94 2.11 2.30 2.66 2.86 3.06 3.41 4.00 4.69 5.39 6.24 6.93 7.32 7.20 6.88 6.47 5.80 5.22 4.74 4.32 3.97
0.03 0.03 0.03 0.04 0.05 0.07 0.07 0.06 0.09 0.12 0.10 0.21 0.24 0.47 1.11 1.54 1.71 1.86 1.82 1.64 1.55 1.47 1.44 1.52 1.60 1.88 2.23 2.53 2.79 3.17 3.78 4.53 5.20 5.84 6.38 6.60 6.50 6.29 5.78 5.10 4.50 4.13 3.78 3.41
0.07 0.06 0.06 0.04 0.04 0.06 0.07 0.08 0.23 0.34 0.36 0.34 0.28 0.51 1.10 1.46 1.63 1.59 1.53 1.53 1.39 1.38 1.39 1.36 1.39 1.62 1.92 2.14 2.52 2.91 3.35 3.96 4.39 4.74 5.17 5.35 5.36 5.15 4.84 4.38 3.94 3.53 3.05 2.69
0.17 0.14 0.08 0.05 0.04 0.07 0.07 0.08 0.27 0.49 0.47 0.47 0.49 0.84 1.36 1.44 1.45 1.38 1.33 1.33 1.32 1.31 1.32 1.37 1.46 1.59 1.81 1.94 2.13 2.33 2.63 2.99 3.15 3.20 3.45 3.68 3.71 3.68 3.55 3.27 2.97 2.69 2.33 1.96
0.28 0.19 0.09 0.04 0.03 0.05 0.07 0.07 0.12 0.26 0.29 0.55 0.85 1.23 1.70 1.62 1.57 1.51 1.48 1.31 1.24 1.20 1.23 1.35 1.39 1.37 1.41 1.49 1.56 1.64 1.77 1.93 2.01 2.09 2.15 2.30 2.34 2.33 2.27 2.12 1.89 1.68 1.50 1.28
0.27 0.20 0.10 0.05 0.04 0.05 0.07 0.10 0.15 0.26 0.50 0.76 1.04 1.51 2.13 2.16 1.84 1.56 1.36 1.14 1.04 1.06 1.15 1.24 1.28 1.23 1.20 1.20 1.25 1.31 1.34 1.39 1.44 1.48 1.46 1.49 1.52 1.49 1.43 1.34 1.27 1.15 1.03 0.92
0.23 0.23 0.13 0.08 0.09 0.12 0.12 0.15 0.20 0.26 0.36 0.73 1.19 1.86 2.14 2.34 2.23 1.79 1.44 1.25 1.14 1.06 1.06 1.12 1.10 1.06 1.03 1.01 1.01 1.07 1.08 1.06 1.07 1.09 1.09 1.09 1.05 1.02 1.00 1.00 0.98 0.87 0.76 0.66
0.24 0.30 0.28 0.19 0.15 0.14 0.14 0.17 0.24 0.47 0.52 0.58 1.10 2.03 2.08 2.37 2.45 2.14 1.83 1.66 1.53 1.25 1.15 1.14 1.04 0.97 0.92 0.91 0.88 0.90 0.87 0.87 0.91 0.88 0.84 0.85 0.79 0.74 0.74 0.74 0.68 0.62 0.57 0.52
0.22 0.38 0.68 0.67 0.49 0.27 0.20 0.21 0.23 0.29 0.46 0.65 1.16 2.16 2.33 2.26 2.32 2.23 1.95 1.85 1.91 1.75 1.53 1.37 1.17 1.05 1.01 0.96 0.88 0.80 0.75 0.72 0.74 0.73 0.73 0.73 0.71 0.69 0.67 0.65 0.57 0.52 0.50 0.49
0.17 0.41 0.91 1.24 0.89 0.52 0.35 0.25 0.24 0.31 0.60 0.76 1.09 1.75 2.14 2.22 2.27 2.28 2.29 2.24 2.24 2.00 1.71 1.50 1.26 1.16 1.11 1.04 0.93 0.84 0.78 0.68 0.62 0.63 0.65 0.64 0.62 0.61 0.60 0.59 0.55 0.50 0.43 0.38
0.29 0.64 0.66 0.58 0.51 0.47 0.38 0.34 0.32 0.34 0.42 0.74 1.11 1.50 1.94 2.10 2.18 2.41 2.60 2.46 2.12 1.79 1.62 1.54 1.43 1.32 1.24 1.14 1.06 0.91 0.78 0.66 0.60 0.61 0.63 0.62 0.57 0.52 0.49 0.48 0.47 0.44 0.40 0.35
0.34 0.60 0.59 0.53 0.43 0.48 0.47 0.47 0.49 0.48 0.54 0.81 1.17 1.74 2.05 2.23 2.35 2.40 2.35 2.29 2.18 1.91 1.73 1.65 1.55 1.43 1.35 1.23 1.15 1.06 0.92 0.81 0.72 0.69 0.71 0.68 0.63 0.55 0.50 0.46 0.43 0.41 0.36 0.31
0.33 0.55 0.82 0.75 0.45 0.63 0.97 0.80 0.67 0.70 0.75 0.93 1.26 1.58 1.71 1.87 2.05 2.24 2.31 2.21 2.20 2.01 1.81 1.70 1.68 1.62 1.52 1.45 1.36 1.21 1.01 0.88 0.76 0.68 0.66 0.64 0.59 0.54 0.50 0.43 0.40 0.42 0.42 0.36
0.29 0.54 0.75 0.74 0.85 1.30 1.13 0.71 0.64 0.77 0.83 0.84 1.00 1.11 1.32 1.49 1.69 1.93 2.12 2.16 2.18 2.08 1.96 1.85 1.75 1.69 1.59 1.47 1.33 1.12 0.87 0.76 0.67 0.61 0.57 0.51 0.47 0.47 0.47 0.43 0.43 0.44 0.44 0.42
0.20 0.45 0.74 0.87 1.15 1.30 1.11 0.69 0.61 0.89 1.09 0.84 0.88 0.89 0.91 1.03 1.28 1.72 1.79 1.82 1.94 1.99 1.95 1.84 1.71 1.62 1.48 1.27 1.07 0.96 0.78 0.71 0.66 0.60 0.55 0.47 0.40 0.44 0.47 0.47 0.46 0.48 0.47 0.46
0.24 0.41 0.74 0.94 1.31 1.54 1.34 0.61 0.40 0.71 1.42 1.03 0.92 0.96 0.94 1.10 1.37 1.40 1.33 1.33 1.45 1.62 1.71 1.66 1.49 1.35 1.25 1.06 0.91 0.90 0.78 0.70 0.66 0.57 0.51 0.44 0.41 0.43 0.47 0.52 0.51 0.47 0.47 0.45
0.54 0.67 0.89 1.05 1.32 1.36 0.77 0.44 0.56 1.27 1.58 1.14 0.92 0.98 1.14 1.34 1.26 0.95 0.83 0.97 1.11 1.25 1.42 1.41 1.31 1.22 1.06 0.88 0.86 0.93 0.90 0.75 0.57 0.46 0.45 0.46 0.45 0.44 0.43 0.47 0.49 0.47 0.42 0.44
0.66 0.84 1.00 1.10 1.39 1.38 0.60 0.52 0.90 1.08 0.87 0.77 0.76 0.79 0.82 0.83 0.73 0.65 0.64 0.75 0.86 1.01 1.11 1.17 1.19 1.10 0.98 0.89 0.87 0.88 0.84 0.65 0.52 0.50 0.50 0.50 0.46 0.36 0.36 0.45 0.48 0.44 0.43 0.45
0.59 0.76 0.87 1.02 1.23 0.93 0.50 0.49 0.53 0.55 0.64 0.63 0.68 0.68 0.58 0.58 0.60 0.57 0.60 0.70 0.81 0.86 0.89 0.94 0.99 0.94 0.90 0.85 0.85 0.83 0.71 0.54 0.50 0.56 0.54 0.49 0.41 0.36 0.36 0.42 0.43 0.40 0.39 0.37
0.58 0.45 0.54 0.68 0.69 0.54 0.46 0.42 0.45 0.53 0.53 0.54 0.59 0.59 0.54 0.49 0.48 0.51 0.58 0.68 0.74 0.74 0.73 0.79 0.86 0.85 0.81 0.75 0.73 0.72 0.62 0.55 0.57 0.61 0.54 0.45 0.39 0.33 0.30 0.30 0.28 0.29 0.29 0.28
0.53 0.39 0.53 0.68 0.70 0.61 0.56 0.50 0.49 0.53 0.53 0.51 0.54 0.57 0.50 0.41 0.41 0.45 0.54 0.55 0.59 0.64 0.65 0.70 0.80 0.80 0.70 0.63 0.59 0.53 0.54 0.55 0.61 0.59 0.49 0.42 0.34 0.28 0.27 0.22 0.17 0.16 0.15 0.13
0.39 0.41 0.52 0.68 0.65 0.68 0.64 0.47 0.45 0.54 0.63 0.64 0.59 0.52 0.43 0.38 0.36 0.37 0.45 0.47 0.47 0.53 0.60 0.67 0.68 0.63 0.56 0.51 0.49 0.41 0.41 0.44 0.47 0.44 0.37 0.30 0.25 0.23 0.19 0.18 0.16 0.10 0.08 0.07